WX4SGA Weather Reports


Display with metric or nautical units.
time (UTC)temp
F
wind
direction
speed
MPH
gust
MPH
rain 1hr
in
rain 24hr
in
rain mn
in
humidity
%
barometer
mb
20260906120627 77 29 0.0 0.0 0.00 0.00 0.00 99 1013.2
20260906120125 77 18 0.0 1.0 0.00 0.00 0.00 99 1013.2
20260906115619 76 54 0.0 0.0 0.00 0.00 0.00 99 1013.2
20260906115114 76 32 0.0 0.0 0.00 0.00 0.00 99 1013.2
20260906114608 76 34 0.0 0.0 0.00 0.00 0.00 99 1013.2
20260906114103 76 34 0.0 0.0 0.00 0.00 0.00 99 1013.2
20260906113603 76 35 0.0 0.0 0.00 0.00 0.00 99 1013.2
20260906113057 75 35 0.0 0.0 0.00 0.00 0.00 99 1013.2
20260906112551 76 34 0.0 0.0 0.00 0.00 0.00 99 1013.2
20260906112048 75 34 0.0 0.0 0.00 0.00 0.00 99 1012.9
20260906111548 75 34 0.0 0.0 0.00 0.00 0.00 99 1012.9
20260906111043 75 35 0.0 0.0 0.00 0.00 0.00 99 1012.9
20260906110542 75 35 0.0 0.0 0.00 0.00 0.00 99 1012.9
20260906110042 75 35 0.0 0.0 0.00 0.00 0.00 99 1012.9
20260906105537 76 35 0.0 0.0 0.00 0.00 0.00 99 1012.9
20260906105033 76 35 0.0 0.0 0.00 0.00 0.00 99 1012.9
20260906104532 75 35 0.0 0.0 0.00 0.00 0.00 99 1012.9
20260906104032 76 36 0.0 0.0 0.00 0.00 0.00 99 1012.5
20260906103530 76 34 0.0 0.0 0.00 0.00 0.00 99 1012.5
20260906103026 76 32 0.0 0.0 0.00 0.00 0.00 99 1012.5
20260906102526 76 33 0.0 0.0 0.00 0.00 0.00 99 1012.2
20260906102021 76 33 0.0 0.0 0.00 0.00 0.00 99 1012.2
20260906101515 76 32 0.0 0.0 0.00 0.00 0.00 99 1012.5
20260906101010 76 32 0.0 0.0 0.00 0.00 0.00 99 1012.5
20260906100506 76 32 0.0 0.0 0.00 0.00 0.00 99 1012.5
20260906100001 76 32 0.0 0.0 0.00 0.00 0.00 99 1012.2
20260906095455 76 31 0.0 0.0 0.00 0.00 0.00 99 1012.2
20260906094951 76 31 0.0 0.0 0.00 0.00 0.00 99 1012.2
20260906094449 76 31 0.0 0.0 0.00 0.00 0.00 99 1012.2
20260906093946 76 31 0.0 0.0 0.00 0.00 0.00 99 1012.2
20260906093442 76 31 0.0 0.0 0.00 0.00 0.00 99 1012.2
20260906092941 76 31 0.0 0.0 0.00 0.00 0.00 99 1012.2
20260906092441 77 30 0.0 0.0 0.00 0.00 0.00 99 1012.2
20260906091937 77 34 0.0 0.0 0.00 0.00 0.00 99 1011.9
20260906091432 77 32 0.0 0.0 0.00 0.00 0.00 98 1011.9
20260906090929 77 32 0.0 0.0 0.00 0.00 0.00 98 1011.9
20260906090424 77 10 0.0 1.0 0.00 0.00 0.00 98 1011.9
20260906085918 77 18 0.0 0.0 0.00 0.00 0.00 98 1012.2
20260906085412 77 18 0.0 0.0 0.00 0.00 0.00 98 1012.2
20260906084912 77 18 0.0 0.0 0.00 0.00 0.00 98 1011.9
20260906084407 77 18 0.0 0.0 0.00 0.00 0.00 98 1011.9
20260906083905 77 21 0.0 0.0 0.00 0.00 0.00 97 1011.9
20260906083401 77 27 0.0 0.0 0.00 0.00 0.00 98 1011.9
20260906082901 77 26 0.0 0.0 0.00 0.00 0.00 98 1012.2
20260906082400 77 19 0.0 1.0 0.00 0.00 0.00 98 1011.9
20260906081857 77 33 0.0 0.0 0.00 0.00 0.00 98 1012.2
20260906081352 77 31 0.0 0.0 0.00 0.00 0.00 99 1012.2
20260906080848 77 32 0.0 0.0 0.00 0.00 0.00 99 1011.9
20260906080344 77 32 0.0 0.0 0.00 0.00 0.00 99 1012.2
20260906075843 77 32 0.0 0.0 0.00 0.00 0.00 98 1012.2
20260906075338 77 33 0.0 1.0 0.00 0.00 0.00 98 1011.9
20260906074834 77 35 0.0 0.0 0.00 0.00 0.00 98 1011.9
20260906074333 77 36 0.0 0.0 0.00 0.00 0.00 98 1012.2
20260906073832 77 36 0.0 0.0 0.00 0.00 0.00 98 1012.2
20260906073327 77 35 0.0 0.0 0.00 0.00 0.00 97 1012.2
20260906072824 77 35 0.0 0.0 0.00 0.00 0.00 97 1012.2
20260906072319 77 35 0.0 0.0 0.00 0.00 0.00 97 1012.2
20260906071815 77 33 0.0 0.0 0.00 0.00 0.00 96 1012.2
20260906071310 77 31 0.0 0.0 0.00 0.00 0.00 96 1012.2
20260906070807 77 31 0.0 1.0 0.00 0.00 0.00 96 1012.2
20260906070302 77 24 0.0 0.0 0.00 0.00 0.00 96 1012.2
20260906065801 77 26 0.0 0.0 0.00 0.00 0.00 96 1012.2
20260906065257 78 16 0.0 0.0 0.00 0.00 0.00 95 1012.2
20260906064752 78 13 1.0 1.0 0.00 0.00 0.00 94 1012.5
20260906064248 78 18 0.0 1.0 0.00 0.00 0.00 94 1012.5
20260906063743 78 7 1.0 1.0 0.00 0.00 0.00 94 1012.5
20260906063238 77 18 0.0 0.0 0.00 0.00 0.00 95 1012.5
20260906062733 78 25 0.0 0.0 0.00 0.00 0.00 95 1012.5
20260906062233 78 24 0.0 0.0 0.00 0.00 0.00 95 1012.5
20260906061729 78 10 1.0 1.0 0.00 0.00 0.00 95 1012.9
20260906061225 77 36 0.0 0.0 0.00 0.00 0.00 96 1012.9
20260906060720 77 37 0.0 0.0 0.00 0.00 0.00 95 1012.9
20260906060218 77 37 0.0 0.0 0.00 0.00 0.00 95 1012.9
20260906055713 78 41 0.0 0.0 0.00 0.00 0.00 95 1012.9
20260906055209 78 35 0.0 0.0 0.00 0.00 0.00 95 1012.9
20260906054704 78 37 0.0 0.0 0.00 0.00 0.00 94 1012.9
20260906054204 78 37 0.0 0.0 0.00 0.00 0.00 94 1012.5
20260906053701 78 40 0.0 0.0 0.00 0.00 0.00 93 1012.9
20260906053155 78 28 0.0 2.0 0.00 0.00 0.00 93 1012.9
20260906052651 78 35 0.0 0.0 0.00 0.00 0.00 93 1012.9
20260906052147 78 30 0.0 0.0 0.00 0.00 0.00 93 1012.9
20260906051643 79 13 0.0 1.0 0.00 0.00 0.00 93 1012.9
20260906051143 79 53 0.0 0.0 0.00 0.00 0.00 92 1012.5
20260906050638 78 20 1.0 2.0 0.00 0.00 0.00 93 1012.5
20260906050134 78 14 0.0 0.0 0.00 0.00 0.00 94 1012.5
20260906045632 78 23 0.0 1.0 0.00 0.00 0.00 94 1012.5
20260906045127 79 30 0.0 0.0 0.00 0.00 0.00 93 1012.5
20260906044623 79 38 0.0 0.0 0.00 0.00 0.00 93 1012.9
20260906044118 79 54 0.0 1.0 0.00 0.00 0.00 92 1012.9
20260906043615 79 16 0.0 0.0 0.00 0.00 0.00 93 1012.9
20260906043110 79 25 0.0 0.0 0.00 0.00 0.00 94 1012.9
20260906042609 79 26 0.0 0.0 0.00 0.00 0.00 94 1012.5
20260906042103 79 27 0.0 0.0 0.00 0.00 0.00 94 1012.9
20260906041600 79 36 0.0 0.0 0.00 0.00 0.00 94 1012.9
20260906041054 79 57 0.0 0.0 0.00 0.00 0.00 94 1012.9
20260906040550 79 29 0.0 0.0 0.00 0.00 0.00 95 1012.9
20260906040045 79 44 0.0 0.0 0.00 0.00 0.00 94 1013.2
20260906035541 79 39 0.0 0.0 0.00 0.00 0.00 95 1013.2
20260906035037 79 27 0.0 0.0 0.00 0.00 0.00 94 1013.2
20260906034536 79 24 0.0 0.0 0.00 0.00 0.00 94 1013.2
20260906034025 79 31 0.0 0.0 0.00 0.00 0.00 94 1013.5
20260906033520 79 4 0.0 1.0 0.00 0.00 0.00 93 1013.5
20260906033016 80 43 0.0 0.0 0.00 0.00 0.00 93 1013.5
20260906032512 80 32 0.0 0.0 0.00 0.00 0.00 93 1013.5
20260906032006 80 44 0.0 0.0 0.00 0.00 0.00 92 1013.5
20260906031502 80 57 0.0 1.0 0.00 0.00 0.00 92 1013.5
20260906030957 80 59 0.0 1.0 0.00 0.00 0.00 92 1013.5
20260906030452 80 58 0.0 1.0 0.00 0.00 0.00 91 1013.5
20260906025946 80 43 0.0 0.0 0.00 0.00 0.00 91 1013.5
20260906025445 80 69 0.0 1.0 0.00 0.00 0.00 92 1013.5
20260906024944 80 68 0.0 1.0 0.00 0.00 0.00 92 1013.5
20260906024444 80 38 0.0 0.0 0.00 0.00 0.00 93 1013.5
20260906023939 80 38 0.0 1.0 0.00 0.00 0.00 92 1013.5
20260906023436 80 39 0.0 0.0 0.00 0.00 0.00 92 1013.5
20260906022935 80 52 0.0 0.0 0.00 0.00 0.00 91 1013.5
20260906022426 80 38 0.0 0.0 0.00 0.00 0.00 92 1013.5
20260906021920 80 38 0.0 0.0 0.00 0.00 0.00 91 1013.9
20260906021420 81 33 0.0 0.0 0.00 0.00 0.00 91 1013.5
20260906020915 80 50 0.0 0.0 0.00 0.00 0.00 90 1013.5
20260906020415 80 53 0.0 0.0 0.00 0.00 0.00 92 1013.5
20260906015909 80 46 0.0 1.0 0.00 0.00 0.00 92 1013.5
20260906015409 80 47 0.0 0.0 0.00 0.00 0.00 91 1013.2
20260906014903 81 54 0.0 0.0 0.00 0.00 0.00 91 1013.2
20260906014402 81 58 0.0 1.0 0.00 0.00 0.00 90 1013.2
20260906013859 81 57 1.0 1.0 0.00 0.00 0.00 89 1013.2
20260906013354 81 49 0.0 0.0 0.00 0.00 0.00 89 1012.9
20260906012849 80 51 0.0 1.0 0.00 0.00 0.00 90 1012.9
20260906012344 80 52 0.0 0.0 0.00 0.00 0.00 91 1012.5
20260906011844 80 63 0.0 1.0 0.00 0.00 0.00 93 1012.5
20260906011339 80 79 0.0 0.0 0.00 0.00 0.00 93 1012.5
20260906010835 80 54 0.0 0.0 0.00 0.00 0.00 93 1012.2
20260906010331 80 54 0.0 0.0 0.00 0.00 0.00 93 1012.5
20260906005826 80 54 0.0 0.0 0.00 0.00 0.00 92 1012.2
20260906005326 80 58 0.0 0.0 0.00 0.00 0.00 92 1011.9
20260906004824 80 57 0.0 0.0 0.00 0.00 0.00 91 1012.2
20260906004324 81 57 0.0 0.0 0.00 0.00 0.00 91 1011.9
20260906003819 81 58 0.0 1.0 0.00 0.00 0.00 91 1011.9
20260906003315 81 57 0.0 0.0 0.00 0.00 0.00 90 1011.9
20260906002810 81 56 0.0 0.0 0.00 0.00 0.00 88 1011.9
20260906002309 81 56 0.0 0.0 0.00 0.00 0.00 87 1011.9
20260906001805 82 56 0.0 0.0 0.00 0.00 0.00 87 1011.9
20260906001300 82 54 0.0 0.0 0.00 0.00 0.00 88 1011.9
20260906000755 82 54 0.0 0.0 0.00 0.00 0.00 88 1011.9
20260906000249 82 54 0.0 0.0 0.00 0.00 0.00 86 1011.9
20260905235744 83 54 0.0 0.0 0.00 0.00 0.00 86 1011.5
20260905235244 83 53 0.0 0.0 0.00 0.00 0.00 86 1011.5
20260905234740 83 53 0.0 0.0 0.00 0.00 0.00 86 1011.5
20260905234235 84 53 0.0 0.0 0.00 0.00 0.00 85 1011.5
20260905233730 84 54 0.0 0.0 0.00 0.00 0.00 84 1011.5
20260905233229 84 48 0.0 0.0 0.00 0.00 0.00 84 1011.5
20260905232724 84 46 0.0 0.0 0.00 0.00 0.00 85 1011.5
20260905232220 84 27 0.0 1.0 0.00 0.00 0.00 84 1011.5
20260905231716 85 63 0.0 1.0 0.00 0.00 0.00 84 1011.5
20260905231212 85 52 0.0 0.0 0.00 0.00 0.00 83 1011.5
20260905230708 85 58 0.0 1.0 0.00 0.00 0.00 82 1011.9
20260905230205 86 66 0.0 1.0 0.00 0.00 0.00 81 1011.9
20260905225705 87 55 0.0 1.0 0.00 0.00 0.00 80 1011.9
20260905225200 88 47 0.0 0.0 0.00 0.00 0.00 75 1011.9
20260905224659 88 41 0.0 0.0 0.00 0.00 0.00 75 1011.9
20260905224154 89 21 1.0 1.0 0.00 0.00 0.00 68 1011.9
20260905223651 89 53 0.0 1.0 0.00 0.00 0.00 72 1011.9
20260905223147 89 32 1.0 1.0 0.00 0.00 0.00 68 1012.2
20260905222643 90 69 1.0 1.0 0.00 0.00 0.00 73 1011.9
20260905222137 90 35 1.0 2.0 0.00 0.00 0.00 69 1012.2
20260905221633 90 37 0.0 1.0 0.00 0.00 0.00 72 1012.2
20260905221130 91 84 0.0 0.0 0.00 0.00 0.00 66 1012.2
20260905220625 90 340 1.0 2.0 0.00 0.00 0.00 66 1012.2
20260905220121 92 67 1.0 1.0 0.00 0.00 0.00 71 1012.2
20260905215620 91 5 1.0 1.0 0.00 0.00 0.00 64 1012.5
20260905215116 93 18 0.0 1.0 0.00 0.00 0.00 64 1012.2
20260905214612 93 334 2.0 2.0 0.00 0.00 0.00 62 1012.2
20260905214111 93 2 2.0 3.0 0.00 0.00 0.00 62 1012.2
20260905213607 93 350 2.0 3.0 0.00 0.00 0.00 60 1012.2
20260905213102 94 334 1.0 2.0 0.00 0.00 0.00 59 1012.2
20260905212557 92 28 0.0 0.0 0.00 0.00 0.00 63 1012.2
20260905212057 91 14 1.0 4.0 0.00 0.00 0.00 63 1011.9
20260905211552 91 327 2.0 3.0 0.00 0.00 0.00 64 1012.2
20260905211048 89 334 2.0 4.0 0.00 0.00 0.00 65 1012.2
20260905210543 88 64 1.0 1.0 0.00 0.00 0.00 69 1012.2
20260905210038 89 50 1.0 1.0 0.00 0.00 0.00 72 1012.2
20260905205537 89 5 1.0 2.0 0.00 0.00 0.00 67 1012.2
20260905205037 91 23 1.0 3.0 0.00 0.00 0.00 65 1012.2
20260905204532 92 301 2.0 3.0 0.00 0.00 0.00 62 1012.5
20260905204027 92 268 2.0 3.0 0.00 0.00 0.00 63 1012.2
20260905203526 92 325 3.0 4.0 0.00 0.00 0.00 62 1012.2
20260905203021 92 343 3.0 4.0 0.00 0.00 0.00 67 1012.5
20260905202517 94 13 2.0 4.0 0.00 0.00 0.00 60 1012.2
20260905202012 93 20 2.0 3.0 0.00 0.00 0.00 61 1012.2
20260905201508 94 36 1.0 2.0 0.00 0.00 0.00 58 1012.2
20260905201008 93 309 1.0 3.0 0.00 0.00 0.00 60 1012.5
20260905200504 93 304 2.0 3.0 0.00 0.00 0.00 60 1012.5
20260905200003 93 272 2.0 2.0 0.00 0.00 0.00 62 1012.5
20260905195457 92 26 1.0 3.0 0.00 0.00 0.00 60 1012.9
20260905194953 93 336 2.0 3.0 0.00 0.00 0.00 60 1012.5
20260905194451 94 0 2.0 2.0 0.00 0.00 0.00 59 1012.9
20260905193946 92 357 1.0 3.0 0.00 0.00 0.00 62 1012.9
20260905193441 93 335 2.0 3.0 0.00 0.00 0.00 61 1012.9
20260905192936 93 44 0.0 2.0 0.00 0.00 0.00 61 1012.5
20260905192431 93 303 2.0 4.0 0.00 0.00 0.00 64 1012.9
20260905191927 92 2 1.0 1.0 0.00 0.00 0.00 61 1012.9
20260905191425 93 267 2.0 3.0 0.00 0.00 0.00 61 1013.2
20260905190920 92 269 3.0 4.0 0.00 0.00 0.00 62 1013.2
20260905190418 91 254 3.0 3.0 0.00 0.00 0.00 62 1013.2
20260905185917 92 318 3.0 6.0 0.00 0.00 0.00 63 1013.2
20260905185412 90 28 1.0 3.0 0.00 0.00 0.00 65 1013.5
20260905184911 91 306 5.0 6.0 0.00 0.00 0.00 67 1013.5
20260905184411 91 327 2.0 2.0 0.00 0.00 0.00 67 1013.5
20260905183910 92 7 1.0 2.0 0.00 0.00 0.00 65 1013.5
20260905183405 92 348 1.0 3.0 0.00 0.00 0.00 65 1013.9
20260905182859 91 30 0.0 1.0 0.00 0.00 0.00 65 1013.5
20260905182353 90 303 2.0 3.0 0.00 0.00 0.00 68 1013.9
20260905181849 91 312 3.0 4.0 0.00 0.00 0.00 67 1013.9
20260905181348 91 307 3.0 3.0 0.00 0.00 0.00 68 1013.9
20260905180847 91 297 2.0 3.0 0.00 0.00 0.00 68 1013.9
20260905180342 90 356 1.0 3.0 0.00 0.00 0.00 67 1013.9
20260905175837 89 2 2.0 3.0 0.00 0.00 0.00 67 1014.2
20260905175331 88 9 2.0 3.0 0.00 0.00 0.00 72 1014.2
20260905174827 87 36 3.0 3.0 0.00 0.00 0.00 73 1014.2
20260905174323 88 6 3.0 4.0 0.00 0.00 0.00 70 1014.2
20260905173818 88 7 2.0 4.0 0.00 0.00 0.00 74 1014.2
20260905173315 88 31 0.0 1.0 0.00 0.00 0.00 73 1014.2
20260905172814 89 335 1.0 4.0 0.00 0.00 0.00 72 1014.6
20260905172312 88 332 2.0 4.0 0.00 0.00 0.00 73 1014.6
20260905171809 86 28 2.0 3.0 0.00 0.00 0.00 74 1014.6
20260905171305 88 315 2.0 6.0 0.00 0.00 0.00 74 1014.6
20260905170802 89 298 2.0 4.0 0.00 0.00 0.00 70 1014.6
20260905170257 87 328 1.0 2.0 0.00 0.00 0.00 76 1014.6
20260905165755 88 16 3.0 4.0 0.00 0.00 0.00 74 1014.6
20260905165251 87 8 1.0 3.0 0.00 0.00 0.00 73 1014.6
20260905164746 85 334 3.0 3.0 0.00 0.00 0.00 77 1014.9
20260905164246 86 341 4.0 6.0 0.00 0.00 0.00 77 1014.9
20260905163742 88 349 1.0 2.0 0.00 0.00 0.00 73 1014.9
20260905163239 86 35 0.0 3.0 0.00 0.00 0.00 74 1015.2
20260905162734 85 355 1.0 3.0 0.00 0.00 0.00 77 1015.2
20260905162234 86 5 3.0 4.0 0.00 0.00 0.00 76 1015.2
20260905161728 86 6 2.0 4.0 0.00 0.00 0.00 77 1015.2
20260905161226 86 51 0.0 1.0 0.00 0.00 0.00 76 1015.2
20260905160725 86 0 1.0 2.0 0.00 0.00 0.00 76 1015.6
20260905160219 87 341 2.0 3.0 0.00 0.00 0.00 74 1015.6
20260905155714 87 5 4.0 7.0 0.00 0.00 0.00 74 1015.6
20260905155213 85 337 1.0 2.0 0.00 0.00 0.00 78 1015.6
20260905154707 86 2 2.0 3.0 0.00 0.00 0.00 76 1015.2
20260905154203 87 272 2.0 3.0 0.00 0.00 0.00 75 1015.6
20260905153659 86 8 2.0 3.0 0.00 0.00 0.00 77 1015.6
20260905153154 86 357 3.0 7.0 0.00 0.00 0.00 78 1015.6
20260905152649 87 205 3.0 4.0 0.00 0.00 0.00 77 1015.6
20260905152143 86 22 1.0 3.0 0.00 0.00 0.00 77 1015.6
20260905151638 85 345 2.0 4.0 0.00 0.00 0.00 79 1015.6
20260905151128 87 55 1.0 1.0 0.00 0.00 0.00 76 1015.6
20260905150624 86 51 1.0 2.0 0.00 0.00 0.00 78 1015.6
20260905150122 85 326 2.0 3.0 0.00 0.00 0.00 80 1015.6
20260905145621 86 264 1.0 4.0 0.00 0.00 0.00 78 1015.6
20260905145120 85 315 1.0 3.0 0.00 0.00 0.00 79 1015.6
20260905144620 84 58 1.0 2.0 0.00 0.00 0.00 79 1015.9
20260905144119 84 356 2.0 2.0 0.00 0.00 0.00 81 1015.9
20260905143614 83 31 0.0 2.0 0.00 0.00 0.00 83 1015.9
20260905143109 84 42 0.0 0.0 0.00 0.00 0.00 80 1015.9
20260905142608 84 36 0.0 1.0 0.00 0.00 0.00 80 1015.9
20260905142108 84 276 2.0 2.0 0.00 0.00 0.00 83 1015.9
20260905141607 83 65 1.0 2.0 0.00 0.00 0.00 82 1015.6
20260905141104 82 343 2.0 2.0 0.00 0.00 0.00 85 1015.6
20260905140559 82 326 2.0 3.0 0.00 0.00 0.00 85 1015.6
20260905140058 81 12 2.0 3.0 0.00 0.00 0.00 85 1015.9
20260905135554 81 1 1.0 2.0 0.00 0.00 0.00 87 1015.9
20260905135053 81 314 2.0 3.0 0.00 0.00 0.00 87 1015.9
20260905134548 79 2 1.0 2.0 0.00 0.00 0.00 89 1015.6
20260905134047 80 1 4.0 7.0 0.00 0.00 0.00 90 1015.9
20260905133542 80 23 2.0 2.0 0.00 0.00 0.00 89 1015.9
20260905133036 78 6 2.0 2.0 0.00 0.00 0.00 91 1015.6
20260905132531 78 11 1.0 4.0 0.00 0.00 0.00 93 1015.9
20260905132026 78 359 2.0 2.0 0.00 0.00 0.00 94 1015.9
20260905131521 77 11 1.0 3.0 0.00 0.00 0.00 94 1015.9
20260905131017 77 12 1.0 2.0 0.00 0.00 0.00 96 1015.6
20260905130516 77 348 3.0 3.0 0.00 0.00 0.00 97 1015.6
20260905130011 77 12 1.0 1.0 0.00 0.00 0.00 98 1015.6
20260905125505 76 29 2.0 3.0 0.00 0.00 0.00 99 1015.6
20260905125001 76 327 3.0 4.0 0.00 0.00 0.00 99 1015.6
20260905124457 76 10 1.0 2.0 0.00 0.00 0.00 99 1015.6
20260905123953 76 330 1.0 2.0 0.00 0.00 0.00 99 1015.6
20260905123449 76 353 2.0 3.0 0.00 0.00 0.00 99 1015.6
20260905122948 76 325 1.0 2.0 0.00 0.00 0.00 99 1015.6
20260905122443 76 7 1.0 1.0 0.00 0.00 0.00 99 1015.6
20260905121939 76 2 1.0 1.0 0.00 0.00 0.00 99 1015.6
20260905121434 76 31 0.0 1.0 0.00 0.00 0.00 99 1015.6
20260905120932 76 6 0.0 1.0 0.00 0.00 0.00 99 1015.6